STARLINK-37161, 68565

Orbit data source: Space-Track

STARLINK-37161, 68565 is a payload satellite owned by SpaceX/Seattle (US) in LEO that was launched on Thu, 02 Apr 2026 UTC via an FALCON 9 launch vehicle from the Air Force Eastern Test Range (AFETR). Payload-class satellites include a variety of spacecraft equipped with specific instruments for various scientific and technological missions. These include communications satellites like Starlink; space stations such as the ISS; scientific satellites like the Hubble; Earth observation satellites from companies like Planet Labs, Umbra, and HawkEye 360; GPS; miniature CubeSats for education and research; and military/defense satellites.

Loading next visibility...
Identifier
68565, 2026-070Z
Orbit
LEO
Country
Flag of USUS
Related business
Manufacturer
SpaceX/Seattle
Mission
Operational spacecraft
Bus & Motor
STARLINK V2MO, Unknown motor
Mass
575 kg wet, ~530 kg dry
Launch date (UTC)
2026-04-02 (2 months ago)
Launch vehicle
FALCON 9
Launch site
Air Force Eastern Test Range (AFETR)
Object type
Payload
Rocket body
Debris
Shape & HBR
Unknown shape, 14.5 m
Radar Cross Section
RCS unknown

Expand to show TLE details & history
Last TLE update: 1 day ago

TLE from 1 day ago
0 STARLINK-37161
1 68565U 26070Z   26145.03178939  .00029090  00000-0  86873-3 0  9998
2 68565  53.1587   7.2093 0001134  84.6978 275.4154 15.34401026  8252
Epoch: 2026-05-25T00:45Z
TLE epoch observation values (Epoch: 2026-05-25T00:45:46.603Z)
Latitude
-0.00001°
Longitude
113.1397°
Altitude
463.528 km
Speed
7.636 km/s
True Right ascension
00h 28m 50s
True Declination
0° 00' 00"
Sunlit
Object was in daylight at epoch
Visualization orbit readout
Latitude
Unknown
Longitude
Unknown
Altitude
Unknown
Speed
Unknown
Apparent Right ascension
Unknown
Apparent Declination
Unknown
Sunlit
N/A
Visualization observer readout
Local Sidereal Time
10:21:22
Azimuth
Unknown
Elevation
Unknown
Doppler factor
Unknown
Orbital elements
Apogee altitude
463.733 km
Perigee altitude
462.182 km
Semi-major axis
6,841.094 km
Eccentricity
0.00011
Inclination
53.1587°
RAAN
7.2093°
Arg. of periapsis
84.6978°
True anomaly
275.40246°
Mean anomaly
275.4154°
Eccentric anomaly
275.40893°
Mean motion
3.83579 °/min
Orbital period
93.85 mins
BSTAR
0.00086873
Loading maneuver chart data...
Computing Atmospheric mass density...
Loading historical data...
Loading historical data...
Loading historical data...
Loading historical data...
Loading historical data...
Loading historical data...
Loading historical data...

Documentation

Showing up to 5 results
|